Back to catalog

ERS 2 DEB

AliveSSO
NORAD 35392·DEBRIS·🇪🇺 EU

Launched Apr 21, 1995 from Guiana Space Centre

Loading…

Next Passes (next 24 hours)

TLE

FreshSource: Space-Track

Epoch: Sep 13, 2026, 09:14 UTC

1 35392U 95021F   26256.38492592  .00001800  00000-0  42930-3 0  9992
2 35392  98.3227 227.4433 0002382 159.1247 201.0048 14.54911931982040

Track ERS 2 DEB in real time with AllMySat

Download on the App Store